Vertical_Velocity
5 13 2 5 8 4 6 4 1 2 1 -3 4 0 0 -3 -0 -0 -1 2 1 -1 -2 -2 -2 -1 -1 -2 -2 -3 5 -6
2 12 16 11 7 13 4 9 7 6 5 7 -2 3 -5 2 3 3 -4 2 -3 2 -2 -3 -1 -2 1 -3 -8 1 -9 16
4 2 5 -0 -6 -1 -2 -2 7 5 6 12 -8 -0 -3 -2 -3 -6 1 4 -3 3 -1 -1 -1 3 -2 -4 -4 -3 10 5
-5 8 4 -5 1 -3 -12 7 1 3 8 5 3 5 1 1 -6 0 4 -3 1 -1 1 -2 -1 -4 -6 0 3 -5 1 8
-5 -1 -5 -3 -21 -20 -2 -17 10 -1 13 3 3 -5 -3 -2 -1 1 -3 1 1 2 1 6 -1 -0 -3 -1 -3 2 -5 7
3 -1 3 3 12 16 -7 -9 11 -2 -8 -11 6 -5 -3 -2 4 -1 -1 -0 -4 2 -3 -1 -0 0 -1 -2 -1 -3 -4 5
6 10 13 1 -7 7 2 -1 -4 -20 -2 0 7 -6 4 5 -1 -2 4 -1 -1 -1 -4 4 -1 -4 2 -4 -4 -3 -0 -2
-7 -4 -16 3 1 13 4 -5 -2 0 10 13 1 0 -0 10 -1 -1 -0 -6 4 1 -0 -2 4 -2 -5 -3 0 0 -2 -5
4 16 22 3 -8 -5 -30 -16 0 -4 -0 2 1 5 0 0 -1 -4 2 1 -3 -4 -3 1 -4 -2 -1 -0 -0 -5 -2 -5
-7 -12 -19 -14 -17 -1 -10 -1 4 4 -2 1 -0 1 2 3 -2 1 -1 1 -3 -1 -1 -3 -0 1 -1 -1 -5 -3 -3 -2
-11 -8 -3 1 8 -2 1 3 -4 -7 3 3 -0 -2 3 -0 3 3 1 -1 -2 3 -2 3 -1 -4 -3 -2 -4 2 1 3
-11 -5 -1 13 2 -0 0 5 2 1 0 9 3 0 1 1 3 -1 0 5 -3 -1 1 -0 -2 -3 -1 4 -0 -5 -3 -3
3 3 5 0 -0 -4 -2 4 4 -1 2 3 1 1 -0 -0 3 -2 5 1 1 1 -2 -4 -3 -2 -3 6 2 -8 -7 -5
-2 4 4 3 1 -2 -0 1 -4 6 4 -3 -4 0 1 -3 1 0 -1 4 -0 -1 -2 1 -0 -4 -2 -10 3 15 -3 -9
-3 -4 -3 -2 10 -0 1 9 4 -0 3 1 -2 2 1 3 1 -1 -3 0 1 -1 1 -2 10 7 -3 -3 -0 5 -5 -4
1 4 -7 -3 -9 5 1 -5 -6 -5 1 -3 1 -2 -0 3 1 4 -0 1 3 0 -1 4 -5 2 11 1 -5 -2 -2 -9
-5 -2 9 20 -10 -2 -0 2 -2 6 3 -6 -2 -5 -16 2 -1 4 2 -1 2 7 -3 0 -3 -4 -4 -2 -1 1 -1 -0
-0 1 -1 11 -6 -9 -4 -2 13 -1 -7 -4 -1 1 2 3 4 -0 -0 -2 1 -2 1 -5 -3 -2 2 0 -2 -1 -2 2
-2 -2 -2 4 -1 -1 -4 -0 0 -6 -1 2 -3 1 3 -2 2 -1 2 -0 -0 5 -2 -2 -4 -3 -3 -3 1 -0 -2 -1
-2 -2 -3 1 -1 -5 -1 -4 0 3 -3 1 0 -2 1 6 -3 1 3 4 5 4 -1 -7 -8 -2 -4 -5 -1 -1 1 -1
Height
1492 1502 1508 1514 1517 1522 1526 1530 1534 1537 1541 1544 1548 1553 1556 1560 1562 1564 1566 1569 1569 1571 1572 1574 1576 1577 1578 1579 1580 1580 1582 1583
1496 1505 1509 1515 1522 1524 1528 1532 1535 1537 1541 1545 1549 1554 1558 1563 1565 1566 1568 1571 1572 1573 1574 1576 1577 1578 1578 1580 1581 1581 1583 1583
1497 1502 1508 1512 1518 1526 1531 1537 1540 1542 1545 1547 1551 1555 1560 1563 1566 1569 1571 1572 1574 1574 1575 1577 1578 1578 1579 1580 1581 1582 1584 1582
1498 1503 1504 1511 1519 1525 1532 1539 1542 1546 1547 1551 1553 1557 1561 1563 1567 1570 1572 1573 1575 1576 1578 1578 1579 1580 1580 1580 1581 1580 1582 1582
1501 1502 1505 1508 1515 1524 1536 1537 1546 1547 1550 1554 1555 1558 1561 1564 1566 1570 1572 1575 1576 1578 1578 1580 1580 1581 1579 1579 1580 1581 1580 1581
1498 1503 1506 1510 1522 1523 1531 1536 1542 1545 1551 1555 1557 1558 1562 1565 1567 1570 1571 1575 1577 1578 1578 1578 1579 1578 1578 1578 1577 1579 1577 1580
1499 1501 1506 1511 1525 1526 1533 1536 1540 1550 1553 1556 1557 1560 1564 1567 1569 1571 1573 1573 1575 1577 1578 1578 1577 1577 1577 1576 1577 1575 1575 1577
1503 1509 1513 1518 1529 1530 1536 1539 1545 1550 1554 1555 1557 1561 1564 1566 1567 1569 1570 1573 1576 1577 1577 1578 1577 1576 1575 1576 1575 1575 1573 1574
1506 1512 1516 1519 1526 1530 1535 1542 1547 1551 1555 1556 1558 1561 1563 1564 1567 1568 1571 1572 1572 1574 1575 1575 1576 1577 1575 1574 1575 1573 1573 1572
1513 1517 1525 1527 1529 1537 1540 1546 1548 1550 1552 1553 1556 1559 1562 1564 1565 1568 1568 1569 1571 1573 1574 1575 1576 1577 1575 1574 1574 1573 1570 1571
1513 1522 1526 1529 1535 1538 1542 1545 1547 1549 1551 1553 1556 1558 1560 1563 1565 1564 1565 1567 1570 1571 1572 1574 1573 1575 1574 1572 1571 1572 1568 1570
1519 1523 1527 1531 1534 1538 1542 1545 1545 1547 1550 1553 1554 1556 1558 1560 1563 1562 1564 1565 1567 1568 1569 1569 1572 1571 1571 1571 1568 1567 1567 1566
1522 1525 1527 1530 1533 1537 1540 1542 1542 1545 1549 1550 1551 1554 1555 1558 1560 1560 1563 1563 1565 1565 1566 1567 1568 1569 1567 1568 1566 1562 1562 1562
1520 1524 1526 1528 1532 1536 1538 1540 1540 1543 1546 1546 1549 1551 1553 1555 1558 1558 1560 1561 1561 1562 1564 1566 1566 1564 1564 1564 1564 1563 1558 1558
1518 1521 1524 1527 1532 1534 1536 1538 1540 1540 1543 1543 1544 1547 1550 1552 1554 1555 1557 1558 1559 1560 1562 1563 1565 1563 1560 1562 1561 1559 1558 1558
1515 1519 1521 1524 1526 1530 1532 1533 1536 1538 1539 1539 1541 1543 1546 1549 1551 1552 1553 1555 1557 1558 1559 1560 1559 1561 1561 1560 1559 1559 1558 1555
1510 1514 1517 1520 1521 1524 1528 1531 1533 1534 1535 1535 1537 1540 1542 1546 1548 1549 1549 1552 1554 1555 1553 1555 1555 1556 1556 1557 1557 1557 1555 1554
1504 1507 1511 1515 1516 1519 1523 1526 1528 1528 1529 1531 1533 1534 1537 1540 1543 1544 1546 1549 1549 1548 1549 1550 1551 1551 1552 1553 1553 1552 1551 1550
1497 1501 1505 1509 1510 1512 1515 1518 1521 1521 1523 1525 1528 1529 1532 1535 1537 1540 1542 1543 1543 1545 1546 1547 1546 1547 1548 1550 1549 1548 1547 1546
1490 1493 1497 1502 1504 1506 1509 1512 1515 1516 1518 1520 1522 1525 1528 1531 1532 1536 1538 1538 1539 1541 1541 1541 1542 1542 1543 1545 1545 1543 1543 1542